OBJECT C, 44312

Orbit data source: Space-Track

You're viewing an Uncataloged Satellite

Recently launched and/or uncataloged satellites may have evolving metadata. Metadata may include but not limited to: Owner, Maufacturer, Bus, Motor, and Mission.

OBJECT C, 44312 is a satellite owned by CAST (CN) in LEO that was launched on Wed, 05 Jun 2019 UTC via a CHANG ZHENG 11 launch vehicle from the Yellow Sea Launch Area, China (YSLA). Unknown objects in Earth's orbit typically refer to objects detected orbiting the Earth but have not yet been identified or cataloged. These objects could be anything from previously untracked satellites, spent rocket stages, debris from satellite collisions, or even natural meteoroids temporarily captured by Earth's gravity.

Loading next visibility...
OBJECT C details
Identifier
44312, 2019-032C
Orbit
LEO
Last TLE update8 hours ago
Origin
Flag of CNCAST (CN / PRC)
ManufacturerCAST?
MissionOperational Commercial Weather
Bus & MotorBF, Unknown motor
Mass~10 kg wet, ~10 kg dry
Launch date (UTC)
2019-06-05 (6 years ago)
Launch vehicle
CHANG ZHENG 11
Launch site
Yellow Sea Launch Area, China (YSLA)
Object typeUnknown
Shape & HBRBox, 0.3 m
Radar Cross Section0.105 m², Medium (>0.1 m² and < 1m²)

Expand to show TLE details & history

TLE from 8 hours ago
0 OBJECT C
1 44312U 19032C   24361.23091591  .00014973  00000-0  73841-3 0  9995
2 44312  44.9845  44.9372 0008074  89.9544 270.2260 15.17828615305693
Epoch: 2024-12-26T05:32Z
Definitive object data (Epoch: 2024-12-26T05:32:31.134Z)
Latitude-0.00004°
Longitude-133.40585°
Altitude512.384 km
Speed7.609 km/s
True Right ascension02h 59m 44s
True Declination0° 00' 00"
Sunlit
Object was in full shadow at TLE epoch
Visualization TLE readout
Latitude35.75528°
Longitude-1.06206°
Altitude509.513 km
Speed7.617 km/s
Apparent Right ascension07h 47m 28s
Apparent Declination-1° 44' 47"
Sunlit
Object is in daylight
Visualization observer readout
Local Sidereal Time13:20:52
Azimuth264.382° W
Elevation3.971°
Doppler factor1
Orbital elements
Apogee altitude519.574 km
Perigee altitude508.445 km
Semi-major axis6,892.146 km
Eccentricity0.0008074
Inclination44.9845°
RAAN44.9372°
Arg. of periapsis89.9544°
True anomaly270.13348°
Mean anomaly270.226°
Eccentric anomaly270.17974°
Mean motion3.79325 °/min
BSTAR0.00073841
Orbital period94.91 mins
Loading maneuver chart data...
Loading historical data...
Loading historical data...
Loading historical data...
Loading historical data...
Loading historical data...
Loading historical data...
Loading historical data...

OBJECT C Visibility forecast

Observer location: undefined°, undefined

Span
Click to sort rows by Start time (UTC) header in descending order
Start Az.
Max El. time (UTC)
Max El. Az.
Max El.
End time (UTC)
End Az.
5 mins2024-12-27 05:25:06.252Z181.875° SSW2024-12-27 05:27:06.252Z143.452° SSE20.196°2024-12-27 05:30:06.252Z91.429° ESE
6 mins2024-12-27 07:04:06.252Z250.761° W2024-12-27 07:06:06.252Z282.872° WNW44.291°2024-12-27 07:10:06.252Z65.598° ENE
5 mins2024-12-27 08:44:06.252Z300.002° NW2024-12-27 08:46:06.252Z357.394° N32.109°2024-12-27 08:49:06.252Z62.041° ENE
5 mins2024-12-27 10:24:06.252Z310.697° NW2024-12-27 10:26:06.252Z23.807° NE37.512°2024-12-27 10:29:06.252Z88.535° E
6 mins2024-12-27 12:03:06.252Z276.546° WNW2024-12-27 12:05:06.252Z227.103° WSW35.564°2024-12-27 12:09:06.252Z137.493° SSE
|